Austin, MN

12:12 AM CST on February 25, 2017 (GMT -0600)
Austin Municipal

Weather History for KAUM - April, 2013

Change the Weather History Date:

Monday, April 1, 2013

  Actual Average Record
Temperature  
Mean Temperature 26 °F -  
Max Temperature 33 °F 46 °F 77 °F (2015)
Min Temperature 19 °F 29 °F 19 °F (2013)
Degree Days  
Heating Degree Days 39    
Moisture  
Dew Point 14 °F    
Average Humidity 62    
Maximum Humidity 74    
Minimum Humidity 41    
Precipitation  
Precipitation 0.00 in - - ()
Sea Level Pressure  
Sea Level Pressure 30.18 in    
Wind  
Wind Speed 15 mph (NW)    
Max Wind Speed 20 mph    
Max Gust Speed 25 mph    
Visibility 10 miles    
Events      
Averages and records for this station are not official NWS values.
T = Trace of Precipitation, MM = Missing Value Source: NWS Daily Summary

Daily Weather History Graph

Daily Weather History Graph

Search for Another Location

Airport or City:

Trip Planner

Search our weather history database for the weather conditions in past years. The results will help you decide how hot, cold, wet, or windy it might be!

Date:

Astronomy

Apr. 01, 2013 Rise Set
Actual Time 6:52 AM CDT 7:38 PM CDT
Civil Twilight 6:23 AM CDT 8:07 PM CDT
Nautical Twilight 5:49 AM CDT 8:42 PM CDT
Astronomical Twilight 5:13 AM CDT 9:18 PM CDT
Moon 12:55 AM CDT (4/1) 10:31 AM CDT (4/1)
Length of Visible Light 13h 44m
Length of Day
12h 46m
Waning Gibbous, 67% of the Moon is Illuminated
Apr 1
Waning Gibbous
Apr 2
Last Quarter
Apr 10
New
Apr 18
First Quarter
Apr 25
Full

Hourly Weather History & Observations

Time (CDT) Temp. Windchill Dew Point Humidity Pressure Visibility Wind Dir Wind Speed Gust Speed Precip Events Conditions
12:16 AM 24.8 °F 10.7 °F 15.8 °F 69% 30.06 in 10.0 mi NW 19.6 mph 23.0 mph N/A   Clear
12:35 AM 24.8 °F 13.4 °F 15.8 °F 69% 30.06 in 10.0 mi NW 12.7 mph 18.4 mph N/A   Clear
12:55 AM 24.8 °F 11.1 °F 15.8 °F 69% 30.06 in 10.0 mi NW 18.4 mph 24.2 mph N/A   Clear
1:16 AM 24.8 °F 10.7 °F 15.8 °F 69% 30.07 in 10.0 mi NW 19.6 mph 23.0 mph N/A   Clear
1:35 AM 23.0 °F 10.1 °F 14.0 °F 68% 30.08 in 10.0 mi NW 15.0 mph 25.3 mph N/A   Clear
1:55 AM 23.0 °F 10.6 °F 14.0 °F 68% 30.09 in 10.0 mi NNW 13.8 mph 23.0 mph N/A   Clear
2:16 AM 23.0 °F 10.6 °F 15.8 °F 74% 30.09 in 10.0 mi NNW 13.8 mph - N/A   Clear
2:35 AM 23.0 °F 9.2 °F 14.0 °F 68% 30.09 in 10.0 mi NW 17.3 mph - N/A   Clear
2:55 AM 21.2 °F 8.3 °F 12.2 °F 68% 30.10 in 10.0 mi NW 13.8 mph 18.4 mph N/A   Clear
3:16 AM 21.2 °F 7.8 °F 12.2 °F 68% 30.10 in 10.0 mi NW 15.0 mph 23.0 mph N/A   Clear
3:35 AM 21.2 °F 7.8 °F 12.2 °F 68% 30.10 in 10.0 mi NW 15.0 mph 21.9 mph N/A   Clear
3:55 AM 21.2 °F 7.8 °F 12.2 °F 68% 30.11 in 10.0 mi NW 15.0 mph - N/A   Clear
4:16 AM 21.2 °F 8.9 °F 12.2 °F 68% 30.12 in 10.0 mi NNW 12.7 mph 21.9 mph N/A   Clear
4:35 AM 21.2 °F 7.3 °F 12.2 °F 68% 30.12 in 10.0 mi NW 16.1 mph - N/A   Clear
4:55 AM 21.2 °F 8.3 °F 12.2 °F 68% 30.12 in 10.0 mi NW 13.8 mph 20.7 mph N/A   Clear
5:16 AM 19.4 °F 7.9 °F 12.2 °F 74% 30.13 in 10.0 mi NW 10.4 mph - N/A   Scattered Clouds
5:35 AM 19.4 °F 7.2 °F 12.2 °F 74% 30.14 in 10.0 mi NW 11.5 mph 18.4 mph N/A   Scattered Clouds
5:55 AM 19.4 °F 6.0 °F 12.2 °F 74% 30.14 in 10.0 mi NW 13.8 mph 18.4 mph N/A   Scattered Clouds
6:16 AM 19.4 °F 7.9 °F 12.2 °F 74% 30.15 in 10.0 mi NW 10.4 mph 20.7 mph N/A   Mostly Cloudy
6:35 AM 19.4 °F 9.5 °F 12.2 °F 74% 30.16 in 10.0 mi NW 8.1 mph - N/A   Mostly Cloudy
6:55 AM 19.4 °F 7.2 °F 12.2 °F 74% 30.17 in 10.0 mi NNW 11.5 mph - N/A   Mostly Cloudy
7:16 AM 19.4 °F 6.0 °F 12.2 °F 74% 30.17 in 10.0 mi NW 13.8 mph 17.3 mph N/A   Mostly Cloudy
7:35 AM 19.4 °F 7.9 °F 12.2 °F 74% 30.18 in 10.0 mi NW 10.4 mph - N/A   Overcast
7:55 AM 19.4 °F 5.5 °F 12.2 °F 74% 30.19 in 10.0 mi NW 15.0 mph 19.6 mph N/A   Scattered Clouds
8:15 AM 19.4 °F 5.5 °F 12.2 °F 74% 30.19 in 10.0 mi NW 15.0 mph 19.6 mph N/A   Scattered Clouds
8:35 AM 21.2 °F 8.3 °F 12.2 °F 68% 30.20 in 10.0 mi NW 13.8 mph 19.6 mph N/A   Scattered Clouds
8:56 AM 21.2 °F 7.3 °F 12.2 °F 68% 30.20 in 10.0 mi NW 16.1 mph 23.0 mph N/A   Clear
9:16 AM 21.2 °F 8.9 °F 12.2 °F 68% 30.20 in 10.0 mi NNW 12.7 mph 18.4 mph N/A   Scattered Clouds
9:35 AM 23.0 °F 9.6 °F 12.2 °F 63% 30.20 in 10.0 mi NW 16.1 mph - N/A   Clear
9:56 AM 23.0 °F 10.1 °F 12.2 °F 63% 30.21 in 10.0 mi NNW 15.0 mph 24.2 mph N/A   Clear
10:16 AM 24.8 °F 10.7 °F 12.2 °F 59% 30.21 in 10.0 mi WNW 19.6 mph 24.2 mph N/A   Clear
10:35 AM 24.8 °F 11.1 °F 12.2 °F 59% 30.22 in 10.0 mi NW 18.4 mph 21.9 mph N/A   Clear
11:16 AM 24.8 °F 11.9 °F 12.2 °F 59% 30.22 in 10.0 mi NW 16.1 mph 23.0 mph N/A   Clear
11:35 AM 26.6 °F 13.4 °F 12.2 °F 55% 30.23 in 10.0 mi NNW 18.4 mph 24.2 mph N/A   Scattered Clouds
11:55 AM 26.6 °F 13.8 °F 12.2 °F 55% 30.23 in 10.0 mi NW 17.3 mph 23.0 mph N/A   Scattered Clouds
12:16 PM 28.4 °F 17.0 °F 14.0 °F 55% 30.23 in 10.0 mi NNW 15.0 mph 21.9 mph N/A   Scattered Clouds
12:35 PM 26.6 °F 15.2 °F 12.2 °F 55% 30.23 in 10.0 mi WNW 13.8 mph 19.6 mph N/A   Scattered Clouds
1:15 PM 28.4 °F 17.0 °F 14.0 °F 55% 30.23 in 10.0 mi NNW 15.0 mph 23.0 mph N/A   Clear
1:35 PM 28.4 °F 17.5 °F 14.0 °F 55% 30.23 in 10.0 mi NNW 13.8 mph 20.7 mph N/A   Scattered Clouds
1:56 PM 30.2 °F 18.5 °F 15.8 °F 55% 30.23 in 10.0 mi NNW 17.3 mph 23.0 mph N/A   Scattered Clouds
2:15 PM 30.2 °F 19.8 °F 15.8 °F 55% 30.23 in 10.0 mi NNW 13.8 mph 20.7 mph N/A   Scattered Clouds
2:35 PM 30.2 °F 19.8 °F 15.8 °F 55% 30.22 in 10.0 mi NNW 13.8 mph 21.9 mph N/A   Scattered Clouds
2:56 PM 30.2 °F 18.5 °F 14.0 °F 51% 30.22 in 10.0 mi NNW 17.3 mph - N/A   Scattered Clouds
3:15 PM 30.2 °F 18.5 °F 14.0 °F 51% 30.22 in 10.0 mi NW 17.3 mph 20.7 mph N/A   Scattered Clouds
3:35 PM 32.0 °F 21.2 °F 12.2 °F 44% 30.22 in 10.0 mi NW 16.1 mph 20.7 mph N/A   Clear
3:56 PM 32.0 °F 21.2 °F 12.2 °F 44% 30.22 in 10.0 mi WNW 16.1 mph - N/A   Clear
4:15 PM 32.0 °F 22.5 °F 15.8 °F 51% 30.22 in 10.0 mi NW 12.7 mph 23.0 mph N/A   Clear
4:35 PM 32.0 °F 22.5 °F 10.4 °F 41% 30.21 in 10.0 mi NNW 12.7 mph 21.9 mph N/A   Clear
4:56 PM 33.8 °F 24.3 °F 14.0 °F 44% 30.21 in 10.0 mi NW 13.8 mph 19.6 mph N/A   Scattered Clouds
5:16 PM 33.8 °F 24.3 °F 14.0 °F 44% 30.21 in 10.0 mi NW 13.8 mph 19.6 mph N/A   Clear
5:35 PM 32.0 °F 22.1 °F 12.2 °F 44% 30.21 in 10.0 mi WNW 13.8 mph 20.7 mph N/A   Clear
5:56 PM 32.0 °F 21.6 °F 14.0 °F 48% 30.21 in 10.0 mi WNW 15.0 mph 20.7 mph N/A   Clear
6:16 PM 32.0 °F 22.1 °F 14.0 °F 48% 30.21 in 10.0 mi NW 13.8 mph 19.6 mph N/A   Clear
6:35 PM 32.0 °F 22.5 °F 12.2 °F 44% 30.21 in 10.0 mi NW 12.7 mph - N/A   Clear
6:56 PM 30.2 °F 18.9 °F 12.2 °F 47% 30.21 in 10.0 mi WNW 16.1 mph - N/A   Clear
7:16 PM 30.2 °F 20.8 °F 15.8 °F 55% 30.20 in 10.0 mi NW 11.5 mph - N/A   Clear
7:35 PM 30.2 °F 20.8 °F 14.0 °F 51% 30.21 in 10.0 mi NW 11.5 mph - N/A   Clear
7:55 PM 28.4 °F 19.7 °F 15.8 °F 59% 30.21 in 10.0 mi WNW 9.2 mph - N/A   Clear
8:16 PM 28.4 °F 19.1 °F 15.8 °F 59% 30.21 in 10.0 mi NW 10.4 mph - N/A   Clear
8:35 PM 28.4 °F 20.4 °F 15.8 °F 59% 30.22 in 10.0 mi WNW 8.1 mph - N/A   Clear
8:56 PM 28.4 °F 21.2 °F 15.8 °F 59% 30.22 in 10.0 mi NW 6.9 mph - N/A   Clear
9:15 PM 28.4 °F 19.1 °F 17.6 °F 64% 30.22 in 10.0 mi NW 10.4 mph - N/A   Clear
9:36 PM 28.4 °F 18.5 °F 15.8 °F 59% 30.23 in 10.0 mi NW 11.5 mph - N/A   Clear
9:55 PM 28.4 °F 19.1 °F 17.6 °F 64% 30.24 in 10.0 mi WNW 10.4 mph - N/A   Clear
10:15 PM 28.4 °F 20.4 °F 17.6 °F 64% 30.24 in 10.0 mi WNW 8.1 mph - N/A   Clear
10:36 PM 26.6 °F 17.5 °F 17.6 °F 69% 30.24 in 10.0 mi WNW 9.2 mph - N/A   Clear
10:55 PM 26.6 °F 16.8 °F 17.6 °F 69% 30.24 in 10.0 mi NW 10.4 mph - N/A   Clear
11:16 PM 26.6 °F 16.8 °F 17.6 °F 69% 30.24 in 10.0 mi NW 10.4 mph - N/A   Clear
11:35 PM 26.6 °F 16.8 °F 17.6 °F 69% 30.24 in 10.0 mi NW 10.4 mph - N/A   Clear
11:55 PM 26.6 °F 16.8 °F 17.6 °F 69% 30.24 in 10.0 mi NW 10.4 mph - N/A   Clear